Location: Bellerive
(46.9237°N, 7.0223°E)
Time: 00:58:58
(UTC+00:00)

Cosmos 1934 Rocket - Pass Details

Date: 09 April 2020
Orbit: 937 x 1000 km, 83.0° (Epoch: 29 May)

Event Time Altitude Azimuth Distance (km) Brightness Sun altitude
Rises 22:03:00 0° 348° (NNW) 3,694 8.1 -31.5°
Reaches altitude 10° 22:05:35 10° 344° (NNW) 2,733 7.2 -31.7°
Enters shadow 22:11:26 57° 278° (W) 1,131 4.3 -32.1°
